Change the Weather History Date:

Thursday, October 4, 2012

  Actual Average Record
Temperature  
Mean Temperature 71 °F -  
Max Temperature 80 °F 76 °F 93 °F (1954)
Min Temperature 62 °F 51 °F 30 °F (1974)
Cooling Degree Days 6    
Growing Degree Days 21 (Base 50)    
Moisture  
Dew Point 71 °F    
Average Humidity 94    
Maximum Humidity 100    
Minimum Humidity 61    
Precipitation  
Precipitation 0.00 in - - ()
Sea Level Pressure  
Sea Level Pressure 30.14 in    
Wind  
Wind Speed 2 mph (WSW)    
Max Wind Speed 7 mph    
Max Gust Speed -    
Visibility 8 miles    
Events      
Averages and records for this station are not official NWS values.
T = Trace of Precipitation, MM = Missing Value Source: NWS Daily Summary

Daily Weather History Graph

Daily Weather History Graph

Search for Another Location

Airport or City:

Trip Planner

Search our weather history database for the weather conditions in past years. The results will help you decide how hot, cold, wet, or windy it might be!

Date:

Astronomy

Oct. 04, 2012 Rise Set
Actual Time 7:03 AM EDT 6:41 PM EDT
Civil Twilight 6:36 AM EDT 7:08 PM EDT
Nautical Twilight 6:06 AM EDT 7:38 PM EDT
Astronomical Twilight 5:34 AM EDT 8:09 PM EDT
Moon 9:18 PM EDT (10/4) 11:15 AM EDT (10/4)
Length of Visible Light 12h 31m
Length of Day
11h 38m
Waning Gibbous, 82% of the Moon is Illuminated
Oct 4
Waning Gibbous
Oct 8
Last Quarter
Oct 15
New
Oct 21
First Quarter
Oct 29
Full

Hourly Weather History & Observations

Time (EDT) Temp. Heat Index Dew Point Humidity Pressure Visibility Wind Dir Wind Speed Gust Speed Precip Events Conditions
12:18 AM 74.5 °F - 73.6 °F 97% 30.15 in 10.0 mi SSW 3.5 mph - N/A   Clear
12:39 AM 75.2 °F - 75.2 °F 100% 30.15 in 10.0 mi Calm Calm - N/A   Clear
1:01 AM 74.3 °F - 74.3 °F 100% 30.15 in 10.0 mi Calm Calm - N/A   Clear
1:22 AM 74.3 °F - 74.3 °F 100% 30.15 in 10.0 mi Calm Calm - N/A   Clear
1:43 AM 73.8 °F - 73.8 °F 100% 30.16 in 10.0 mi SSW 3.5 mph - N/A   Clear
2:05 AM 73.8 °F - 73.8 °F 100% 30.15 in 10.0 mi Calm Calm - N/A   Clear
3:09 AM 73.8 °F - 73.8 °F 100% 30.14 in 7.0 mi Calm Calm - N/A   Clear
3:30 AM 73.6 °F - 73.6 °F 100% 30.13 in 7.0 mi Calm Calm - N/A   Clear
3:51 AM 73.4 °F - 73.4 °F 100% 30.13 in 7.0 mi Calm Calm - N/A   Clear
4:13 AM 73.4 °F - 73.4 °F 100% 30.14 in 7.0 mi Calm Calm - N/A   Clear
4:34 AM 73.4 °F - 73.4 °F 100% 30.14 in 7.0 mi Calm Calm - N/A   Clear
4:55 AM 73.0 °F - 73.0 °F 100% 30.15 in 7.0 mi Calm Calm - N/A   Scattered Clouds
5:17 AM 72.9 °F - 72.9 °F 100% 30.15 in 7.0 mi Calm Calm - N/A   Scattered Clouds
5:38 AM 72.9 °F - 72.9 °F 100% 30.14 in 5.0 mi Calm Calm - N/A   Clear
5:53 AM 73.4 °F - 73.4 °F 100% 30.15 in 5.0 mi Calm Calm - N/A   Overcast
5:59 AM 72.7 °F - 72.7 °F 100% 30.15 in 5.0 mi Calm Calm - N/A   Clear
6:13 AM 72.5 °F - 72.5 °F 100% 30.15 in 5.0 mi Calm Calm - N/A   Scattered Clouds
6:53 AM 71.6 °F - 71.6 °F 100% 30.16 in 3.0 mi Calm Calm - N/A   Overcast
7:53 AM 73.4 °F - 73.4 °F 100% 30.17 in 3.0 mi West 4.6 mph - N/A   Overcast
8:53 AM 73.4 °F - 73.4 °F 100% 30.17 in 3.0 mi SW 4.6 mph - N/A   Overcast
9:53 AM 75.2 °F - 75.2 °F 100% 30.18 in 7.0 mi West 5.8 mph - N/A   Overcast
10:53 AM 77.0 °F - 73.4 °F 89% 30.16 in 10.0 mi Calm Calm - N/A   Overcast
11:53 AM 77.0 °F - 68.0 °F 74% 30.15 in 10.0 mi SSW 4.6 mph - N/A   Overcast
12:53 PM 80.6 °F 82.7 °F 66.2 °F 61% 30.15 in 10.0 mi WSW 6.9 mph - N/A   Overcast
2:53 PM 77.0 °F - 66.2 °F 69% 30.12 in 10.0 mi West 5.8 mph - N/A   Overcast
3:53 PM 78.8 °F - 68.0 °F 69% 30.11 in 10.0 mi SW 5.8 mph - N/A   Mostly Cloudy
4:48 PM 77.0 °F - 68.0 °F 74% 30.11 in 10.0 mi SW 5.8 mph - N/A   Mostly Cloudy
5:49 PM 75.2 °F - 68.0 °F 78% 30.11 in 10.0 mi Calm Calm - N/A   Mostly Cloudy
6:47 PM 73.4 °F - 68.0 °F 83% 30.12 in 10.0 mi West 3.5 mph - N/A   Mostly Cloudy
7:47 PM 69.8 °F - 68.0 °F 94% 30.12 in 10.0 mi NNW 3.5 mph - N/A   Mostly Cloudy
8:54 PM 66.2 °F - 66.2 °F 100% 30.13 in 10.0 mi Calm Calm - N/A   Clear
10:38 PM 64.0 °F - 64.0 °F 100% 30.15 in 3.0 mi Calm Calm - N/A   Clear
11:00 PM 63.5 °F - 63.5 °F 100% 30.14 in 3.0 mi Calm Calm - N/A   Clear
11:21 PM 62.6 °F - 62.6 °F 100% 30.15 in 5.0 mi Calm Calm - N/A   Clear
11:42 PM 62.6 °F - 62.6 °F 100% 30.15 in 5.0 mi Calm Calm - N/A   Clear